Home   Weather   Perg   Past weeks
Flag for Austria

Past Weather in Perg, Upper Austria, Austria — Yesterday and Last 2 Weeks

Now
43 °F

Quite cool.


Feels Like: 43 °F
Forecast: 49 / 38 °F
Wind: 1 mph from Southwest

Location: Amstetten

Current Time: Feb 17, 2020 at 11:49:50 am

Latest Report: Feb 17, 2020 at 10:00 am


Visibility: N/A

Pressure: 30.13 "Hg

Humidity: 82%

Dew Point: 38 °F

Location of PergLocation

Past Weather in Perg — Graph

°F

Perg Temperature Yesterday

Maximum temperature yesterday: 51 °F (at 3:00 pm)
Minimum temperature yesterday: 29 °F (at 6:00 am)
Average temperature yesterday: 40 °F

High & Low Weather Summary for the Past Weeks

 TemperatureHumidityPressure
High56 °F (Feb 2, 11:00 pm)99% (Feb 16, 7:00 am)30.58 "Hg (Feb 16, 7:00 am)
Low25 °F (Feb 9, 4:00 am)47% (Feb 5, 3:00 pm)29.41 "Hg (Feb 4, 7:00 am)
Average40 °F79%30.11 "Hg
* Reported Feb 2 10:00 am — Feb 17 10:00 am, Perg. Weather by CustomWeather, © 2020

Note: Actual official high and low records may vary slightly from our data, if they occured in-between our weather recording intervals... More about our weather records

Perg Weather History for the Previous 24 Hours

Scroll right to see more
 ConditionsComfort  
Time TempWeatherWind HumidityBarometerVisibility
10:00 am
Mon, Feb 17
43 °FQuite cool.1 mph82%30.13 "HgN/A
9:00 am35 °FChilly.1 mph94%30.15 "HgN/A
8:00 am32 °FChilly.No wind95%30.16 "HgN/A
7:00 am33 °FChilly.2 mph95%30.14 "HgN/A
6:00 am34 °FChilly.1 mph96%30.14 "HgN/A
5:00 am33 °FChilly.1 mph94%30.14 "HgN/A
4:00 am35 °FChilly.1 mph95%30.13 "HgN/A
3:00 am36 °FChilly.No wind91%30.13 "HgN/A
2:00 am37 °FChilly.1 mph89%30.12 "HgN/A
1:00 am40 °FChilly.1 mph85%30.09 "HgN/A
12:00 am43 °FQuite cool.1 mph81%30.05 "HgN/A
11:00 pm
Sun, Feb 16
45 °FQuite cool.3 mph77%30.04 "HgN/A
10:00 pm44 °FQuite cool.2 mph83%30.05 "HgN/A
9:00 pm45 °FCool.3 mph78%30.08 "HgN/A
8:00 pm45 °FCool.2 mph80%30.09 "HgN/A
7:00 pm46 °FCool.2 mph78%30.11 "HgN/A
6:00 pm48 °FCool.1 mph71%30.12 "HgN/A
5:00 pm49 °FCool.2 mph69%30.13 "HgN/A
4:00 pm50 °FCool.3 mph67%30.11 "HgN/A
3:00 pm51 °FCool.5 mph61%30.12 "HgN/A
2:00 pm50 °FCool.3 mph61%30.14 "HgN/A
1:00 pm48 °FCool.3 mph64%30.16 "HgN/A
12:00 pm47 °FCool.3 mph67%30.20 "HgN/A
11:00 am43 °FQuite cool.3 mph74%30.23 "HgN/A
Weather by CustomWeather, © 2020

See weather overview

Advertising